Location: Newark
(5.8900°S, 42.6378°W)
Time: 21:00:52
(UTC+00:00)

X-37B - Visible Passes

Search period start: 20 September 2020 00:00
Search period end: 30 September 2020 00:00
Orbit: 386 x 387 km, 45.0° (Epoch: 18 September)

Date Brightness Start Highest point End Pass type
(mag) Time Alt. Az. Time Alt. Az. Time Alt. Az.
22 Sep 3.2 22:11:35 10° SSW 22:12:13 14° SSW 22:12:13 14° SSW visible
23 Sep 2.8 21:14:33 10° SSE 21:15:51 12° SE 21:17:09 10° ESE visible
24 Sep 0.5 21:50:40 10° SW 21:53:51 82° NW 21:54:34 50° NNE visible
26 Sep 2.7 21:30:32 10° WSW 21:33:14 25° NW 21:35:55 10° N visible
28 Sep 3.6 08:06:13 10° NNE 08:07:45 13° NE 08:09:17 10° ENE visible
